Location: Sungai Jaoh
(2.9167°N, 113.9167°E)
Time: 14:57:46
(UTC+00:00)

Cosmos 1844 Rocket - Pass Details

Date: 30 November 2020
Orbit: 824 x 845 km, 71.0° (Epoch: 25 January)

Event Time Altitude Azimuth Distance (km) Brightness Sun altitude
Rises 20:36:41 0° 204° (SSW) 3,366 5.8 -23.5°
Reaches altitude 10° 20:39:10 10° 209° (SSW) 2,434 5.0 -22.9°
Maximum altitude 20:44:36 55° 285° (WNW) 998 2.7 -21.6°
Drops below altitude 10° 20:50:04 10° 2° (N) 2,440 4.9 -20.4°
Sets 20:52:33 0° 7° (N) 3,376 5.7 -19.8°
